Location: Newark
(34.6283°N, 36.0776°E)
Time: 10:34:16
(UTC+00:00)

A-11 Canister half - Pass Details

Date: 21 September 2019
Orbit: 1527 x 1682 km, 47.3° (Epoch: 15 October)

Event Time Altitude Azimuth Distance (km) Brightness Sun altitude
Rises 01:57:19 0° 251° (WSW) 4,679 - -18.2°
Reaches altitude 10° 02:00:24 10° 255° (WSW) 3,707 - -17.6°
Exits shadow 02:03:18 23° 262° (W) 2,852 9.8 -17.0°
Maximum altitude 02:09:37 59° 334° (NNW) 1,767 9.2 -15.7°
Drops below altitude 10° 02:19:10 10° 53° (NE) 3,819 12.1 -13.8°
Sets 02:22:25 0° 57° (ENE) 4,828 13.0 -13.1°
